Regional Weather Roundup
Issued by NWS Lake Charles, LA

Home | Current Version | Previous Version | Text Only | Print | Product List | Glossary On
Versions: 1 2 3 4 5 6 7 8 9 10 11 12 13 14 15 16 17 18 19 20 21 22 23 24 25 26 27 28 29 30 31 32 33 34 35 36 37 38 39 40 41 42 43 44 45 46 47 48 49 50
000
ASUS44 KLCH 061310
RWRLCH
RWRLCH
REGIONAL WEATHER ROUNDUP
NATIONAL WEATHER SERVICE LAKE CHARLES LA
700 AM CST FRI MAR 06 2015

Note: "fair" indicates few or no clouds below 12,000 feet with no
significant weather and/or obstructions to visibility.


ACROSS SOUTHEAST TEXAS

CITY           SKY/WX    TMP DP  RH WIND       PRES   REMARKS
BEAUMONT       CLEAR     30  21  69 N9        30.57R WCI  22
BEAUMONT CITY    N/A     29  20  69 NE8       30.58R WCI  21
ORANGE         SUNNY     30  20  67 N6        30.59R WCI  24
JASPER         PTCLDY    27  23  85 CALM      30.61R
$$

ACROSS CENTRAL LOUISIANA

CITY           SKY/WX    TMP DP  RH WIND       PRES   REMARKS
LEESVILLE      CLEAR     26  18  71 N7        30.56R WCI  18
FULLERTON        N/A     28  18  66 VRB5      30.54R WCI  23
ALEXANDRIA INT CLEAR     25  19  78 N6        30.58R WCI  18
ESLER FIELD    CLEAR     27  17  66 CALM      30.58R
DERIDDER         N/A     26  19  76 CALM      30.59S
OAKDALE        SUNNY     28  18  66 N5        30.57R WCI  23
OPELOUSAS        N/A     28  17  63 N10       30.55S WCI  18
$$

ACROSS SOUTHWEST AND SOUTH CENTRAL LOUISIANA

CITY           SKY/WX    TMP DP  RH WIND       PRES   REMARKS
SULPHUR        SUNNY     30  20  66 N10       30.57R WCI  21
LAKE CHARLES   CLEAR     29  18  63 NE10      30.55S WCI  20
CHENNAULT INT  PTCLDY    28  19  69 N12       30.56S WCI  18
CAMERON PHI    SUNNY     32  19  59 NE18G24   30.57R WCI  20
DEQUINCY         N/A     26  21  80 N5        30.57S WCI  21
JENNINGS         N/A     29  17  59 NE13      30.55S WCI  19
LAFAYETTE      CLEAR     29  14  53 N12       30.53R WCI  19
NEW IBERIA     NOT AVBL
ABBEVILLE        N/A     29  14  52 N12G20    30.53R WCI  20
PATTERSON        N/A     30  18  59 N14       30.50R WCI  20
SALT POINT       N/A     30  19  63 N9        30.48R WCI  22
$$

SELECTED SITES ACROSS THE REGION

CITY           SKY/WX    TMP DP  RH WIND       PRES   REMARKS
HOUSTON BUSH   PTCLDY    30  24  78 CALM      30.58S
HOUSTON HOBBY  PTCLDY    34  24  67 NE10      30.57S WCI  26
GALVESTON      PTCLDY    36  24  62 N25G32    30.56R WCI  24
COLLEGE STAT   CLEAR     30  23  75 N8        30.59S WCI  22
CONROE         CLEAR     28  23  81 N3        30.58S
HUNTSVILLE     PTCLDY    25  22  88 CALM      30.58R
LUFKIN         PTCLDY    27  22  81 N3        30.59S
SHREVEPORT     PTCLDY    24  21  88 CALM      30.60S
MONROE         CLEAR     22  19  89 N3        30.62R
NATCHEZ MS     PTCLDY    25  12  58 N8        30.56R WCI  16
BATON ROUGE    PTCLDY    26  15  63 N7        30.53R WCI  18
N.O. INTL ARPT PTCLDY    32  22  66 N15       30.48R WCI  22
SLIDELL        PTCLDY    29  19  66 N16G23    30.47R WCI  17
$$

MARINE REPORTS

STATION/POSITION TIME  TEMP    WIND        PRES    VSBY  WAVE
                       AIR SEA DIR/SP/G                  HT/PER
                 (UTC) (F)     (DEG/KT/KT) (MB)    (MI)  (FT/S)
BUOY 30 S HIGH I 1300   39 58   30/ 27/ 33 1032.6S         6/ 5
SEA RIM ST PARK  1300   32      20/ 14/ 19 1034.9F
PORT ARTHUR      1300      54   20/  9/ 14 1035.1F
SABINE PASS N    1300   33 53   30/ 14/ 20 1034.8S
TEXAS POINT      NOT AVBL
CALCASIEU PASS   1300   32 51   40/ 15/ 22   N/A
LK CHARLES BEACH 1300   29 54              1035.1F
MARSH ISLAND     1200   33      30/ 18/ 23   N/A           0
FRESH WATER LOCK 1300   31 52  360/ 15/ 19 1032.8S
AMERADA PASS     1300   30 43   20/  6/ 13 1031.9R
$$



USA.gov is the U.S. government's official web portal to all federal, state and local government web resources and services.